SCP
0 0 0 0 0 0 1 1 1 1 1 0 0 0 0 0 0 0 0 0 0 0 0 0 0 0 0 0 0 0 0 0 0 0 0 0 0 0 0 0 0 0 0
0 0 0 0 0 0 0 1 2 1 1 0 0 0 0 0 0 0 0 0 0 0 0 0 0 0 0 0 0 0 0 0 0 0 0 0 0 0 0 0 0 0 0
0 0 0 0 0 0 0 1 2 2 1 1 0 0 0 0 0 0 0 0 0 0 0 0 0 0 0 0 0 0 0 0 0 0 0 0 0 0 0 0 0 0 0
0 0 0 0 0 0 0 1 2 2 2 1 0 0 0 0 0 0 0 0 0 0 0 0 0 0 0 0 0 0 0 0 0 0 0 0 0 0 0 0 0 0 0
0 0 0 0 0 0 0 0 1 2 2 2 1 0 0 0 0 0 0 0 0 0 0 0 0 0 0 0 0 0 0 0 0 0 0 0 0 0 0 0 0 0 0
0 0 0 0 0 0 0 0 1 2 2 2 1 0 0 0 0 0 0 0 0 0 0 0 0 0 0 0 0 0 0 0 0 0 0 0 0 0 0 0 0 0 0
0 0 0 0 0 0 0 0 1 1 2 2 2 1 0 0 0 0 0 1 1 0 0 0 0 0 0 0 0 0 0 0 0 0 0 0 0 0 0 0 0 0 0
0 0 0 0 0 0 0 0 0 1 1 2 2 1 1 0 0 0 0 1 1 1 1 1 0 0 0 0 0 0 0 0 0 0 0 0 0 0 0 0 0 0 0
0 0 0 0 0 0 0 0 0 0 0 1 1 1 1 1 0 0 0 0 1 1 1 1 1 1 1 0 0 0 0 0 0 0 0 0 0 0 0 0 0 0 0
0 0 0 0 0 0 0 0 0 0 0 0 1 1 1 1 0 0 0 0 1 1 2 2 2 2 1 1 1 0 0 0 0 0 0 0 0 0 0 0 0 0 0
0 0 0 0 0 0 0 0 0 0 0 0 0 0 1 1 1 0 0 0 0 1 2 2 3 3 3 2 2 1 1 1 0 0 0 0 0 0 0 0 0 0 0
0 0 0 0 0 0 0 0 0 0 0 0 0 0 0 1 1 0 0 0 0 1 2 3 3 3 3 3 3 3 2 1 1 1 0 0 0 0 0 0 0 0 0
0 0 0 0 0 0 0 0 0 0 0 0 0 0 0 0 1 1 0 0 0 0 1 2 3 3 4 4 4 4 3 3 2 1 1 1 0 0 0 0 0 0 0
0 0 0 0 0 0 0 0 0 0 0 0 0 0 0 0 0 0 0 0 0 0 1 1 2 3 4 4 4 5 4 4 3 2 2 1 1 1 0 0 0 0 0
0 0 0 0 0 0 0 0 0 0 0 0 0 0 0 0 0 0 0 0 0 0 0 1 1 2 3 4 4 4 4 4 4 3 2 1 1 0 0 0 0 0 0
0 0 0 0 0 0 0 0 0 0 0 0 0 0 0 0 0 0 0 0 0 0 0 0 1 2 2 3 2 2 3 3 3 2 1 1 0 0 0 0 0 0 0
0 0 0 0 0 0 0 0 0 0 0 0 0 0 0 0 0 0 0 0 0 0 0 0 0 1 1 1 1 1 2 2 2 2 1 1 0 0 0 0 0 0 0
0 0 0 0 0 0 0 0 0 0 0 0 0 0 0 0 0 0 0 0 0 0 0 0 0 0 1 0 0 0 1 1 1 1 1 1 0 0 0 0 0 0 0
0 0 0 0 0 0 0 0 0 0 0 0 0 0 0 0 0 0 0 0 0 0 0 0 0 0 0 0 0 0 0 0 1 1 1 1 0 0 0 0 0 0 0
0 0 0 0 0 0 0 0 0 0 0 0 0 0 0 0 0 0 0 0 0 0 0 0 0 0 0 0 0 0 0 0 0 0 0 0 0 0 0 0 0 0 0
0 0 0 0 0 0 0 0 0 0 0 0 0 0 0 0 0 0 0 0 0 0 0 0 0 0 0 0 0 0 0 0 0 0 0 0 0 0 0 0 0 0 0
0 0 0 0 0 0 0 0 0 0 0 0 0 0 0 0 0 0 0 0 0 0 0 0 0 0 0 0 0 0 0 0 0 0 0 0 0 0 0 0 0 0 0
0 0 0 0 0 0 0 0 0 0 0 0 0 0 0 0 0 0 0 0 0 0 0 0 0 0 0 0 0 0 0 0 0 0 0 0 0 0 0 0 0 0 0
0 0 0 0 0 0 0 0 0 0 0 0 0 0 0 0 0 0 0 0 0 0 0 0 0 0 0 0 0 0 0 0 0 0 0 0 0 0 0 0 0 0 0
0 0 0 0 0 0 0 0 0 0 0 0 0 0 0 0 0 0 0 0 0 0 0 0 0 0 0 0 0 0 0 0 0 0 0 0 0 0 0 0 0 0 0
0 0 0 0 0 0 0 0 0 0 0 0 0 0 0 0 0 0 0 0 0 0 0 0 0 0 0 0 0 0 0 0 0 0 0 0 0 0 0 0 0 0 0
Wind_Speed
9 9 9 10 10 10 11 12 13 13 11 10 10 10 9 8 7 7 8 9 9 10 9 7 7 7 7 7 7 6 6 5 3 2 3 4 6 7 6 6 6 6 7
9 9 9 9 10 11 12 12 13 13 13 11 10 8 7 7 8 7 9 10 11 11 10 10 8 8 7 8 9 7 5 5 5 4 2 3 4 7 8 7 7 7 6
10 9 9 10 10 12 13 12 13 14 14 13 8 7 7 6 8 10 10 12 12 11 11 12 10 10 10 9 10 9 10 7 6 6 5 5 6 3 4 8 7 7 6
11 10 9 9 10 11 12 13 13 13 13 13 12 12 12 13 13 10 9 10 12 13 13 12 12 11 10 10 11 11 9 8 7 6 7 6 4 3 2 3 5 7 7
11 10 10 10 10 10 10 12 12 13 13 14 15 14 13 12 8 8 10 11 12 14 14 14 13 13 11 12 11 11 11 10 9 7 5 7 6 5 4 4 3 4 5
9 9 8 7 8 8 9 10 12 13 13 14 15 16 16 14 11 11 11 11 10 11 15 16 15 14 13 13 13 12 13 12 11 9 7 6 6 7 7 8 6 5 5
9 9 8 7 7 7 8 9 11 12 12 13 14 16 17 16 16 13 12 11 10 11 15 16 16 14 15 13 12 12 13 14 13 12 10 9 9 5 6 8 7 6 5
6 6 6 6 6 6 7 8 10 11 11 12 13 13 14 12 11 13 11 11 10 11 11 15 15 16 15 14 13 12 13 11 14 14 13 10 9 8 8 7 6 6 5
4 4 4 4 4 5 6 8 9 10 10 10 11 12 13 13 12 12 12 10 10 9 12 14 15 16 16 15 14 12 13 12 13 13 14 12 9 8 8 7 7 8 8
4 4 3 3 3 4 5 6 7 8 9 9 9 9 11 12 12 11 13 12 11 10 11 13 15 15 16 16 15 13 12 14 14 11 13 14 10 9 8 8 8 9 10
1 1 1 2 2 2 2 4 5 6 7 8 8 9 9 10 11 11 12 12 11 11 12 12 13 15 15 16 16 16 14 16 15 14 15 16 13 11 9 9 9 9 9
1 1 1 2 2 3 3 4 4 5 6 6 7 8 8 8 10 11 12 11 12 11 12 11 12 13 15 15 17 17 16 17 17 16 16 16 12 14 11 10 11 10 9
1 2 2 2 3 4 4 4 4 5 5 5 6 7 8 8 9 10 10 10 10 11 11 11 12 13 14 14 15 16 16 17 17 16 16 15 14 15 12 11 11 9 8
2 2 3 3 4 4 5 5 5 5 5 5 6 7 7 8 9 8 8 9 9 10 11 11 12 12 12 13 13 14 15 15 15 15 15 14 15 15 13 11 12 9 9
3 3 3 4 4 5 6 6 7 6 5 5 6 7 7 7 7 7 7 8 8 9 10 10 10 11 10 11 12 13 14 14 14 14 14 14 15 16 13 10 10 10 9
4 4 5 5 5 6 7 8 8 8 7 7 7 6 6 6 6 7 7 7 8 8 8 9 10 11 9 12 16 14 12 13 13 13 12 11 12 13 15 15 13 12 11
4 5 5 5 6 6 7 7 8 8 8 8 7 6 6 6 7 7 6 7 8 7 9 9 10 11 12 14 15 17 13 12 12 12 10 8 8 10 10 12 13 12 13
3 5 5 6 6 6 6 7 7 7 7 8 8 7 6 7 7 6 7 7 6 7 8 9 9 9 10 12 14 14 13 11 11 10 10 10 9 9 10 9 8 8 8
3 4 5 6 7 7 7 7 8 7 7 8 8 8 7 7 7 7 8 7 6 7 7 6 7 8 9 11 12 12 9 9 10 9 9 9 9 11 13 10 8 7 5
3 4 5 6 6 7 7 7 8 8 8 9 9 9 8 8 8 8 8 6 6 7 6 6 6 7 7 8 10 12 7 8 7 6 6 8 10 11 13 10 8 8 6
5 5 6 6 7 7 7 8 8 8 9 9 10 9 8 8 8 7 6 5 5 5 5 6 6 5 6 7 9 11 7 7 6 6 5 5 10 11 12 10 8 9 7
6 6 6 7 7 7 7 9 9 9 9 9 9 9 8 7 6 6 6 5 5 6 6 6 6 5 4 5 7 9 10 7 6 6 5 5 10 10 10 8 8 9 8
6 6 6 8 7 6 6 9 10 10 10 9 9 8 8 7 6 5 6 5 4 4 5 5 6 5 3 3 6 7 9 9 5 4 6 8 10 9 6 8 9 7 5
6 6 7 8 8 7 7 8 9 9 9 9 9 8 7 7 5 4 4 4 4 4 4 5 5 4 3 3 3 3 4 5 5 4 5 7 8 7 6 5 5 4 4
6 6 6 8 9 8 8 8 8 8 9 9 8 8 7 6 5 5 4 4 4 4 5 5 4 4 5 4 5 4 4 4 4 4 3 3 3 4 3 3 3 3 3
6 6 7 8 9 9 9 8 8 8 8 8 8 6 6 5 5 5 5 4 6 6 6 5 4 4 4 3 5 6 7 7 9 6 4 4 4 5 5 5 4 3 4
Wind_Direction
227 215 204 195 189 190 190 191 193 192 189 194 198 202 208 208 209 209 206 202 199 198 198 197 197 194 194 196 194 191 200 207 192 197 241 251 235 229 222 216 215 217 214
232 221 209 197 192 193 194 196 197 194 194 198 200 203 204 209 213 213 213 210 205 201 203 202 200 198 198 199 200 195 194 199 187 175 186 256 260 235 225 215 214 216 210
234 226 215 206 198 196 197 200 201 199 199 196 192 196 203 210 212 213 214 212 208 205 205 206 204 203 202 206 205 200 197 201 200 189 178 196 226 247 229 216 214 211 212
232 228 222 214 206 203 199 200 202 202 200 195 196 197 203 211 215 212 212 208 207 209 209 208 208 208 207 208 207 205 203 197 202 204 213 217 197 201 264 248 220 212 216
225 226 223 219 214 205 200 199 202 206 203 200 200 202 211 217 216 210 210 208 208 210 212 211 211 213 213 211 207 206 206 206 207 202 196 221 239 233 224 252 238 226 223
225 230 229 220 217 209 201 199 202 208 208 206 205 207 212 214 214 213 212 209 208 209 212 214 214 215 216 215 212 210 209 210 211 210 202 191 198 208 214 233 236 231 223
218 224 229 224 218 212 205 203 206 212 210 210 212 212 215 216 218 218 217 212 210 210 211 210 214 216 218 217 214 213 214 212 212 215 217 214 216 202 201 221 235 239 235
224 222 226 225 220 215 208 208 212 217 214 214 217 218 218 219 222 221 221 219 217 215 208 208 213 216 216 217 216 217 217 214 216 219 219 222 222 217 216 216 222 246 247
231 227 232 233 229 225 220 216 218 220 220 220 221 223 222 221 222 222 223 226 223 216 209 207 211 214 215 216 216 220 218 217 219 220 220 224 224 220 220 220 216 231 251
239 240 237 235 243 242 237 231 224 223 224 223 225 228 227 226 226 225 225 226 225 220 213 210 209 211 212 214 217 221 219 220 221 219 221 224 224 223 220 220 222 225 240
267 278 282 272 273 276 265 253 242 237 235 232 231 233 232 230 229 228 228 228 228 223 220 215 212 211 211 212 216 220 217 221 223 220 222 225 220 223 222 220 222 226 229
295 302 330 326 313 299 289 280 265 250 244 238 236 236 237 235 233 233 232 228 228 226 223 220 218 215 213 211 214 218 218 221 223 223 223 225 221 224 223 222 224 225 223
321 346 355 343 329 318 310 301 288 272 262 249 241 241 241 239 239 238 237 235 232 228 224 221 222 220 217 215 216 218 219 221 223 222 223 224 220 224 223 222 224 225 223
352 350 339 331 323 317 311 304 298 293 286 269 252 248 246 244 244 242 239 236 235 233 228 225 226 223 220 219 217 218 220 222 223 222 222 222 220 223 221 221 223 221 221
330 324 325 326 325 324 322 319 314 311 306 288 268 261 260 256 252 248 245 241 237 236 234 230 228 224 221 220 217 218 221 223 224 223 223 223 222 221 220 219 218 216 221
317 326 334 333 331 330 326 323 319 316 312 295 277 274 272 265 258 253 249 247 244 241 235 232 229 227 225 221 217 217 222 222 223 224 222 220 217 220 219 219 216 212 217
333 330 328 327 324 318 314 311 309 313 309 299 288 280 275 270 265 263 257 251 247 243 239 237 232 233 231 220 215 215 220 223 223 222 220 218 215 212 217 218 219 223 224
323 320 324 323 321 320 317 312 309 308 303 296 291 288 283 275 271 264 256 254 251 246 245 242 237 237 235 220 215 212 220 226 224 219 215 215 212 208 204 206 212 220 224
326 322 321 317 318 320 322 320 315 313 307 302 300 296 287 280 274 265 261 259 257 254 249 245 238 238 240 223 215 208 221 226 227 221 215 211 211 205 195 196 204 210 216
343 332 328 320 319 325 331 322 313 311 305 303 299 296 290 279 272 268 266 264 256 255 252 249 241 236 240 224 213 207 219 223 221 215 213 210 205 198 190 196 197 207 207
344 343 335 327 325 331 329 313 308 303 305 307 303 300 294 285 277 275 271 266 262 258 253 253 253 243 238 232 217 210 217 218 213 208 208 206 197 194 191 193 199 202 180
346 346 334 324 325 332 326 310 305 307 311 308 305 303 301 298 291 284 280 270 257 256 256 255 259 253 240 232 226 215 217 212 210 213 202 192 185 185 186 190 188 176 163
337 335 325 316 319 326 323 309 310 316 315 311 306 304 303 298 291 283 281 277 259 252 256 250 255 259 245 231 224 219 214 210 210 204 184 174 172 170 178 181 173 166 164
331 328 321 316 316 322 318 307 312 317 315 311 309 307 305 302 295 283 275 271 265 257 254 250 250 254 249 233 214 210 207 201 201 189 164 159 159 158 152 153 160 166 169
326 323 317 311 310 316 314 315 320 320 315 309 308 308 304 299 297 288 278 270 266 254 251 253 246 243 250 244 210 195 199 192 183 160 154 162 165 169 163 152 148 154 159
323 319 314 312 312 316 317 322 326 323 315 311 311 309 306 303 298 295 298 284 266 271 257 256 253 259 253 236 207 201 191 176 165 158 174 183 183 182 177 168 161 162 166